Regional Weather Roundup
Issued by NWS

Home | Current Version | Previous Version | Text Only | Print | Product List | Glossary On
Versions: 1 2 3 4 5 6 7 8 9 10 11 12 13 14 15 16 17 18 19 20 21 22 23 24 25 26 27 28 29 30 31 32 33 34 35 36 37 38 39 40 41 42 43 44 45 46 47 48 49 50
000
ASUS44 KBMX 192110
RWRAL

ALABAMA REGIONAL WEATHER ROUNDUP
NATIONAL WEATHER SERVICE BIRMINGHAM AL
400 PM CDT SUN APR 19 2015

NOTE: "FAIR" INDICATES FEW OR NO CLOUDS BELOW 12,000 FEET
WITH NO SIGNIFICANT WEATHER AND/OR OBSTRUCTIONS TO VISIBILITY.

THE REMARK "TC" DENOTES TEMPERATURE IN DEGREES CELSIUS.

ALZ001>011-014-016>018-020-192200-
NORTH ALABAMA

CITY           SKY/WX    TMP DP  RH WIND       PRES   REMARKS
MUSCLE SHOALS  CLOUDY    71  62  73 W10       29.63F
HUNTSVILLE     CLOUDY    75  65  70 SW10      29.60F THUNDER
DECATUR        TSTM      64  62  93 SW13      29.64R VSB 1
HALEYVILLE       N/A     69  64  84 W13G21    29.67F
GADSDEN        CLOUDY    77  63  61 S12G20    29.64F
$$

ALZ012-013-022-023-030>036-040>044-192200-
WEST CENTRAL ALABAMA

CITY           SKY/WX    TMP DP  RH WIND       PRES   REMARKS
TUSCALOOSA     PTSUNNY   79  59  50 W9G29     29.69R
$$

ALZ015-024>027-033>036-040>044-192200-
CENTRAL ALABAMA

CITY           SKY/WX    TMP DP  RH WIND       PRES   REMARKS
BIRMINGHAM     TSTM      70  66  87 NW40G51   29.71R SQUALL  VSB 1
MONTGOMERY     PTSUNNY   78  66  66 S15       29.73F
SHELBY CO ARPT MOSUNNY   78  62  57 SW8G22    29.68F
MAXWELL AFB    PTSUNNY   78  68  72 S14       29.72S
GREENVILLE     FAIR      77  66  68 SW10      29.74F
$$

ALZ019-021-028-029-037-038-045>048-192200-
EAST CENTRAL ALABAMA

CITY           SKY/WX    TMP DP  RH WIND       PRES   REMARKS
ANNISTON       CLOUDY    77  63  61 S14G23    29.69F
ALEXANDER CITY CLOUDY    77  65  65 S13       29.73R
AUBURN         CLOUDY    68  63  83 S16       29.79S
$$

ALZ051>064-192200-
SOUTHWEST ALABAMA

CITY           SKY/WX    TMP DP  RH WIND       PRES   REMARKS
MOBILE         PTSUNNY   81  68  64 S9        29.76F
BROOKLEY FIELD MOSUNNY   81  68  64 VRB7      29.77F
EVERGREEN      PTSUNNY   78  68  71 SW8       29.76S
$$

ALZ049-050-065>069-192200-
SOUTHEAST ALABAMA

CITY           SKY/WX    TMP DP  RH WIND       PRES   REMARKS
DOTHAN         PTSUNNY   74  65  73 SW10      29.82F
OZARK          PTSUNNY   74  63  67 SW10      29.79F
TROY           PTSUNNY   75  67  76 SW15      29.78S
EUFAULA        CLOUDY    74  68  81 S7        29.77F
$$



USA.gov is the U.S. government's official web portal to all federal, state and local government web resources and services.